Hourly Data Report for January 02, 2004

TORONTO CITY
ONTARIO

43°40'00.000" N
79°24'00.000" W
112.50 m
6158355
71508
XTO

Download Data

Hourly Data (January 2004)
Hourly Data Report for January 2, 2004
TIME
LST
Temp Definition
°C
Dew Point Definition
°C
Rel Hum Definition
%
Precip. Amount Definition
mm

Wind Dir Definition
10's deg

Wind Spd Definition
km/h
Visibility Definition
km
Stn Press Definition
kPa
Hmdx Definition


Wind Chill Definition


Weather Definition


00:00 2.4 -1.8 74   LegendMM LegendMM LegendMM 100.59     LegendNANA
01:00 2.6 -1.6 74   LegendMM LegendMM LegendMM 100.42     LegendNANA
02:00 2.6 -0.6 79   LegendMM LegendMM LegendMM 100.44     LegendNANA
03:00 1.2 0.5 95   LegendMM LegendMM LegendMM 100.32     LegendNANA
04:00 2.2 1.3 94   LegendMM LegendMM LegendMM 100.23     LegendNANA
05:00 2.6 2.0 96   LegendMM LegendMM LegendMM 100.12     LegendNANA
06:00 3.1 2.8 98   LegendMM LegendMM LegendMM 100.07     LegendNANA
07:00 3.7 3.5 99   LegendMM LegendMM LegendMM 100.11     LegendNANA
08:00 4.0 3.8 99   LegendMM LegendMM LegendMM 100.08     LegendNANA
09:00 4.2 4.0 99   LegendMM LegendMM LegendMM 100.16     LegendNANA
10:00 5.0 4.6 97   LegendMM LegendMM LegendMM 100.23     LegendNANA
11:00 6.1 5.1 93   LegendMM LegendMM LegendMM 100.23     LegendNANA
12:00 7.5 5.7 88   LegendMM LegendMM LegendMM 100.17     LegendNANA
13:00 8.7 5.4 80   LegendMM LegendMM LegendMM 100.11     LegendNANA
14:00 8.4 5.5 82   LegendMM LegendMM LegendMM 100.08     LegendNANA
15:00 8.9 5.7 80   LegendMM LegendMM LegendMM 100.12     LegendNANA
16:00 7.9 5.5 85   LegendMM LegendMM LegendMM 100.15     LegendNANA
17:00 7.1 5.3 88   LegendMM LegendMM LegendMM 100.13     LegendNANA
18:00 7.1 5.7 91   LegendMM LegendMM LegendMM 100.13     LegendNANA
19:00 6.1 5.2 94   LegendMM LegendMM LegendMM 100.09     LegendNANA
20:00 5.9 5.2 95   LegendMM LegendMM LegendMM 99.99     LegendNANA
21:00 6.2 5.8 97   LegendMM LegendMM LegendMM 99.98     LegendNANA
22:00 6.1 5.7 97   LegendMM LegendMM LegendMM 99.86     LegendNANA
23:00 5.9 5.6 98   LegendMM LegendMM LegendMM 99.73     LegendNANA

Notes on Data Quality.

Legend

  • E = Estimated
  • M = Missing
  • NA = Not Available*
  • [empty] = Indicates an unobserved value
Date modified: